Sitka, Alaska, United States (99835)
Lat: 57.05N, Lon: 135.33W
Wx Zone: AKZ023
Local Info
Past Weather Observations for Wednesday, August 17, 2016

NOTE: This archive is for the closest National Weather Service station to Sitka. Information may differ from the station used for current weather conditions.

Click here for Long-term Archive

Time Weather Temperature Dewpoint Humidity Pressure Winds Precip Visibility
23:53
Overcast
55°F / 13°C 55°F / 13°C 100% 30.36 in
(1028 mb)
NE 3.5 mph
(NE 6 kph)
0.00 in
(0.00 mm)
10SM
23:43
Overcast
57°F / 14°C 55°F / 13°C 94% 30.36 in
(1028 mb)
S 5.8 mph
(S 9 kph)
0.00 in
(0.00 mm)
10SM
23:19
Overcast
55°F / 13°C 54°F / 12°C 94% 30.36 in
(1028 mb)
SSE 8.1 mph
(SSE 13 kph)
0.00 in
(0.00 mm)
10SM
22:53
Overcast
Light Rain
55°F / 13°C 55°F / 13°C 100% 30.39 in
(1029 mb)
SW 10.4 mph
(SW 17 kph)
0.01 in
(0.25 mm)
10SM
22:29
Overcast
Light Rain
57°F / 14°C 54°F / 12°C 88% 30.39 in
(1029 mb)
SW 11.5 mph
(SW 19 kph)
0.01 in
(0.25 mm)
10SM
22:21
Overcast
Light Rain
57°F / 14°C 54°F / 12°C 88% 30.39 in
(1029 mb)
SSE 9.2 mph
(SSE 15 kph)
0.01 in
(0.25 mm)
10SM
21:53
Overcast
Light Rain
57°F / 14°C 55°F / 13°C 94% 30.39 in
(1029 mb)
SW 6.9 mph
(SW 11 kph)
0.00 in
(0.00 mm)
10SM
21:25
Overcast
Light Rain
57°F / 14°C 55°F / 13°C 94% 30.39 in
(1029 mb)
SW 8.1 mph
(SW 13 kph)
0.00 in
(0.00 mm)
10SM
20:53
Overcast
Light Rain
57°F / 14°C 55°F / 13°C 94% 30.39 in
(1029 mb)
SW 9.2 mph
(SW 15 kph)
0.01 in
(0.25 mm)
10SM
19:53
Overcast
Light Rain
59°F / 15°C 55°F / 13°C 88% 30.39 in
(1029 mb)
SW 4.6 mph
(SW 7 kph)
0.01 in
(0.25 mm)
10SM
18:53
Overcast
Light Rain
59°F / 15°C 55°F / 13°C 88% 30.39 in
(1029 mb)
Calm 0.00 in
(0.00 mm)
10SM
18:18
Overcast
59°F / 15°C 55°F / 13°C 88% 30.39 in
(1029 mb)
SSW 3.5 mph
(SSW 6 kph)
- 10SM
18:08
Overcast
59°F / 15°C 55°F / 13°C 88% 30.39 in
(1029 mb)
Calm - 10SM
17:53
Overcast
59°F / 15°C 55°F / 13°C 88% 30.39 in
(1029 mb)
SSW 4.6 mph
(SSW 7 kph)
- 10SM
17:34
Overcast
59°F / 15°C 55°F / 13°C 88% 30.39 in
(1029 mb)
SW 4.6 mph
(SW 7 kph)
- 10SM
16:53
Partly Cloudy
59°F / 15°C 55°F / 13°C 88% 30.39 in
(1029 mb)
SSW 4.6 mph
(SSW 7 kph)
- 10SM
15:53
Mostly Cloudy
61°F / 16°C 57°F / 14°C 88% 30.39 in
(1029 mb)
SSE 4.6 mph
(SSE 7 kph)
- 10SM
14:53
Clear
61°F / 16°C 55°F / 13°C 83% 30.42 in
(1030 mb)
SW 4.6 mph
(SW 7 kph)
- 10SM
13:53
Partly Cloudy
61°F / 16°C 55°F / 13°C 83% 30.42 in
(1030 mb)
SW 5.8 mph
(SW 9 kph)
- 10SM
12:53
Overcast
61°F / 16°C 55°F / 13°C 83% 30.42 in
(1030 mb)
SW 4.6 mph
(SW 7 kph)
- 10SM
11:53
Overcast
59°F / 15°C 55°F / 13°C 88% 30.42 in
(1030 mb)
SW 8.1 mph
(SW 13 kph)
- 10SM
10:53
Overcast
59°F / 15°C 54°F / 12°C 82% 30.42 in
(1030 mb)
SW 3.5 mph
(SW 6 kph)
- 10SM
09:53
Overcast
Fog
57°F / 14°C 54°F / 12°C 88% 30.42 in
(1030 mb)
Variable 5.8 mph
(Variable 9 kph)
- 10SM
08:53
Mostly Cloudy
Fog
57°F / 14°C 54°F / 12°C 88% 30.39 in
(1029 mb)
NW 3.5 mph
(NW 6 kph)
- 10SM
07:53
Overcast
Fog
55°F / 13°C 54°F / 12°C 94% 30.39 in
(1029 mb)
Calm - 10SM
06:53
Overcast
Fog
54°F / 12°C 54°F / 12°C 100% 30.42 in
(1030 mb)
Calm - 10SM
05:53
Overcast
Fog
54°F / 12°C 52°F / 11°C 94% 30.42 in
(1030 mb)
Calm - 10SM
04:53
Overcast
Fog
52°F / 11°C 52°F / 11°C 100% 30.39 in
(1029 mb)
E 3.5 mph
(E 6 kph)
- 10SM
03:53
Partly Cloudy
52°F / 11°C 52°F / 11°C 100% 30.39 in
(1029 mb)
E 4.6 mph
(E 7 kph)
- 10SM
02:53
Partly Cloudy
54°F / 12°C 52°F / 11°C 94% 30.39 in
(1029 mb)
Calm - 10SM
01:53
Clear
54°F / 12°C 54°F / 12°C 100% 30.39 in
(1029 mb)
Calm - 10SM
01:04
Partly Cloudy
55°F / 13°C 54°F / 12°C 94% 30.39 in
(1029 mb)
N 5.8 mph
(N 9 kph)
- 10SM
00:53
Mostly Cloudy
55°F / 13°C 54°F / 12°C 94% 30.39 in
(1029 mb)
Calm - 10SM
00:49
Mostly Cloudy
55°F / 13°C 54°F / 12°C 94% 30.39 in
(1029 mb)
Calm - 10SM
00:05
Partly Cloudy
55°F / 13°C 54°F / 12°C 94% 30.39 in
(1029 mb)
ESE 3.5 mph
(ESE 6 kph)
- 10SM
Time Weather Temperature Dewpoint Humidity Pressure Winds Precip Visibility


Weather for websites

WeatherForYou.com, LLC is not responsible for any damages or problems caused by this service. Current weather conditions are obtained from the closest station including government and personal stations which may have varying degrees of accuracy. Weather forecasts are derived from the NOAA NDFD. Like all things, this site belongs to Jesus Christ... He just trusts us to maintain it. If you have any questions or comments email webmaster@weatherforyou.com

Copyright © 2016, WeatherForYou.com LLC. All rights reserved.